FW4559 Weather Reports


time (UTC)temp
F
wind
direction
speed
knots
gust
knots
rain 1hr
in
rain 24hr
in
rain mn
in
humidity
%
barometer
mb
20260506080521 56 238 3.5 13.9 0.00 0.00 0.00 77 1011.0
20260506073514 57 175 3.5 13.9 0.00 0.00 0.00 72 1010.6
20260506073013 57 163 2.6 12.2 0.00 0.00 0.00 71 1010.7
20260506072512 57 179 3.5 11.3 0.00 0.00 0.00 71 1010.9
20260506072012 57 210 1.7 7.0 0.00 0.00 0.00 70 1010.9
20260506071511 57 140 1.7 7.0 0.00 0.00 0.00 70 1010.9
20260506071011 57 169 2.6 8.7 0.00 0.00 0.00 70 1011.1
20260506070513 57 167 3.5 7.8 0.00 0.00 0.00 70 1011.3
20260506062503 59 210 6.1 12.2 0.00 0.00 0.00 64 1010.5
20260506062002 60 160 3.5 9.6 0.00 0.00 0.00 64 1010.9
20260506061502 60 145 4.3 12.2 0.00 0.00 0.00 63 1010.9
20260506061003 60 166 6.1 12.2 0.00 0.00 0.00 63 1011.1
20260506060559 60 44 4.3 13.9 0.00 0.00 0.00 63 1011.3
20260506051052 60 198 1.7 13.0 0.00 0.00 0.00 63 1011.9
20260506050552 60 108 2.6 13.0 0.00 0.00 0.00 63 1012.0
20260506045051 60 150 4.3 10.4 0.00 0.00 0.00 62 1012.0
20260506044553 60 216 3.5 8.7 0.00 0.00 0.00 62 1012.2
20260506044050 60 164 2.6 12.2 0.00 0.00 0.00 62 1011.9
20260506043550 60 145 3.5 11.3 0.00 0.00 0.00 62 1011.9
20260506043049 60 155 3.5 9.6 0.00 0.00 0.00 62 1011.9
20260506042549 60 158 2.6 11.3 0.00 0.00 0.00 62 1011.9
20260506042049 60 106 3.5 11.3 0.00 0.00 0.00 61 1012.1
20260506041547 60 197 3.5 12.2 0.00 0.00 0.00 61 1012.1
20260506041048 60 137 3.5 13.0 0.00 0.00 0.00 61 1012.1
20260506040546 60 179 6.1 13.0 0.00 0.00 0.00 61 1012.1
20260506040045 60 199 2.6 11.3 0.00 0.00 0.00 61 1012.0
20260506035545 60 148 4.3 12.2 0.00 0.00 0.00 61 1012.0
20260506035045 60 146 5.2 12.2 0.00 0.00 0.00 61 1012.1
20260506034645 60 143 3.5 9.6 0.00 0.00 0.00 61 1012.0
20260506034044 60 210 4.3 9.6 0.00 0.00 0.00 61 1012.3
20260506033543 60 134 4.3 9.6 0.00 0.00 0.00 60 1012.3
20260506033043 60 188 4.3 8.7 0.00 0.00 0.00 60 1012.3
20260506032546 60 188 2.6 10.4 0.00 0.00 0.00 60 1012.4
20260506032046 60 159 5.2 10.4 0.00 0.00 0.00 60 1012.1
20260506031543 60 191 3.5 9.6 0.00 0.00 0.00 60 1012.3
20260506031041 60 211 1.7 7.0 0.00 0.00 0.00 59 1012.3
20260506030542 60 148 2.6 7.0 0.00 0.00 0.00 59 1012.3
20260506030043 60 213 3.5 9.6 0.00 0.00 0.00 59 1012.3
20260506025541 60 173 4.3 9.6 0.00 0.00 0.00 58 1012.3
20260506025041 61 163 4.3 12.2 0.00 0.00 0.00 58 1012.3
20260506024557 61 109 4.3 12.2 0.00 0.00 0.00 58 1012.3
20260506024041 61 119 1.7 10.4 0.00 0.00 0.00 58 1012.3
20260506023541 61 151 1.7 11.3 0.00 0.00 0.00 57 1012.5
20260506023041 61 146 1.7 11.3 0.00 0.00 0.00 57 1012.5
20260506022540 61 143 4.3 11.3 0.00 0.00 0.00 57 1012.5
20260506022040 61 162 2.6 10.4 0.00 0.00 0.00 57 1012.4
20260506021540 61 131 4.3 11.3 0.00 0.00 0.00 57 1012.5
20260506021141 61 173 6.1 11.3 0.00 0.00 0.00 57 1012.3
20260506020538 61 155 4.3 10.4 0.00 0.00 0.00 57 1012.4
20260506020039 61 194 2.6 12.2 0.00 0.00 0.00 57 1012.5
20260506015540 61 192 4.3 12.2 0.00 0.00 0.00 57 1012.4
20260506015039 61 144 2.6 9.6 0.00 0.00 0.00 57 1012.3
20260506014538 61 135 3.5 10.4 0.00 0.00 0.00 57 1012.4
20260506014043 61 149 4.3 10.4 0.00 0.00 0.00 57 1012.4
20260506013542 61 198 3.5 10.4 0.00 0.00 0.00 57 1012.4
20260506013058 61 190 2.6 9.6 0.00 0.00 0.00 56 1012.3
20260506012538 61 175 2.6 9.6 0.00 0.00 0.00 56 1012.6
20260506012038 61 103 2.6 7.0 0.00 0.00 0.00 56 1012.7
20260506011541 61 132 3.5 9.6 0.00 0.00 0.00 56 1012.6
20260506011037 61 171 3.5 9.6 0.00 0.00 0.00 56 1012.4
20260506010536 61 176 2.6 7.8 0.00 0.00 0.00 55 1012.5
20260506010037 61 122 3.5 7.8 0.00 0.00 0.00 55 1012.4
20260506005536 61 199 2.6 7.0 0.00 0.00 0.00 55 1012.4
20260506005035 61 155 3.5 7.0 0.00 0.00 0.00 55 1012.5
20260506004536 61 147 2.6 7.0 0.00 0.00 0.00 54 1012.4
20260506004035 61 146 3.5 7.0 0.00 0.00 0.00 54 1012.4
20260506003535 61 177 1.7 7.8 0.00 0.00 0.00 53 1012.4
20260506003036 61 197 3.5 7.8 0.00 0.00 0.00 53 1012.3
20260506002534 61 178 3.5 7.8 0.00 0.00 0.00 53 1012.4
20260506002037 62 201 2.6 8.7 0.00 0.00 0.00 52 1012.3
20260506001538 62 205 3.5 8.7 0.00 0.00 0.00 52 1012.1
20260506001034 62 116 3.5 9.6 0.00 0.00 0.00 51 1012.2
20260506000534 62 145 5.2 12.2 0.00 0.00 0.00 51 1012.2
20260506000035 62 179 7.0 12.2 0.00 0.00 0.00 50 1011.9
20260505235533 63 192 4.3 9.6 0.00 0.00 0.00 50 1012.0
20260505235033 63 148 3.5 13.0 0.00 0.00 0.00 49 1012.4
20260505234536 63 161 6.1 13.0 0.00 0.00 0.00 48 1012.4
20260505234033 63 141 1.7 9.6 0.00 0.00 0.00 48 1012.4
20260505233535 63 213 3.5 11.3 0.00 0.00 0.00 48 1012.4
20260505233032 64 212 6.1 12.2 0.00 0.00 0.00 47 1012.2
20260505232532 64 122 4.3 13.9 0.00 0.00 0.00 46 1012.2
20260505232032 64 155 7.0 15.6 0.00 0.00 0.00 46 1012.1
20260505231536 64 172 2.6 15.6 0.00 0.00 0.00 46 1012.2
20260505231033 64 144 4.3 20.0 0.00 0.00 0.00 47 1012.2
20260505230531 64 156 7.0 20.0 0.00 0.00 0.00 45 1012.1
20260505230048 64 262 4.3 15.6 0.00 0.00 0.00 46 1012.1
20260505225531 64 134 3.5 12.2 0.00 0.00 0.00 46 1012.2
20260505225031 64 205 2.6 14.8 0.00 0.00 0.00 47 1012.2
20260505224530 65 238 4.3 14.8 0.00 0.00 0.00 45 1012.0
20260505224030 65 165 7.0 13.9 0.00 0.00 0.00 45 1012.0
20260505223530 65 149 4.3 14.8 0.00 0.00 0.00 46 1011.9
20260505223029 65 175 8.7 14.8 0.00 0.00 0.00 45 1011.7
20260505222531 66 200 7.0 14.8 0.00 0.00 0.00 45 1011.7
20260505222029 66 155 4.3 10.4 0.00 0.00 0.00 45 1011.8
20260505221534 66 110 2.6 9.6 0.00 0.00 0.00 46 1011.9
20260505221028 66 139 4.3 13.0 0.00 0.00 0.00 45 1012.0
20260505220529 65 155 5.2 14.8 0.00 0.00 0.00 45 1011.9
20260505220030 66 229 5.2 13.9 0.00 0.00 0.00 44 1011.8
20260505215528 66 184 7.0 13.9 0.00 0.00 0.00 43 1011.5
20260505215027 66 150 5.2 12.2 0.00 0.00 0.00 43 1011.7
20260505214526 66 296 3.5 12.2 0.00 0.00 0.00 43 1011.8
20260505214026 66 221 0.9 12.2 0.00 0.00 0.00 44 1011.9
20260505213525 66 193 3.5 17.4 0.00 0.00 0.00 43 1012.0
20260505213028 66 154 7.8 17.4 0.00 0.00 0.00 42 1012.0
20260505212528 66 136 0.9 13.9 0.00 0.00 0.00 44 1011.9
20260505212025 66 206 4.3 13.9 0.00 0.00 0.00 42 1012.0
20260505211525 66 186 5.2 13.0 0.00 0.00 0.00 42 1012.0
20260505211023 66 150 4.3 21.7 0.00 0.00 0.00 43 1012.0
20260505210523 67 133 8.7 21.7 0.00 0.00 0.00 42 1012.3
20260505210023 67 183 6.1 17.4 0.00 0.00 0.00 42 1012.2
20260505205523 67 202 5.2 11.3 0.00 0.00 0.00 42 1012.2
20260505205023 67 129 3.5 14.8 0.00 0.00 0.00 41 1012.3
20260505204523 67 165 5.2 15.6 0.00 0.00 0.00 41 1012.1
20260505204025 67 213 6.1 14.8 0.00 0.00 0.00 41 1012.0
20260505203521 67 193 7.0 17.4 0.00 0.00 0.00 41 1012.2
20260505203027 68 177 9.6 17.4 0.00 0.00 0.00 40 1012.4
20260505202520 68 144 9.6 14.8 0.00 0.00 0.00 39 1012.5
20260505202020 68 171 5.2 14.8 0.00 0.00 0.00 39 1012.7
20260505201520 69 201 3.5 13.9 0.00 0.00 0.00 42 1012.4
20260505201019 68 188 6.1 13.9 0.00 0.00 0.00 41 1012.3
20260505200521 68 214 4.3 11.3 0.00 0.00 0.00 40 1012.3
20260505200030 68 167 4.3 12.2 0.00 0.00 0.00 41 1012.4
20260505195518 68 269 5.2 15.6 0.00 0.00 0.00 41 1012.7
20260505195017 68 198 5.2 12.2 0.00 0.00 0.00 42 1012.7
20260505194516 68 188 3.5 9.6 0.00 0.00 0.00 43 1012.7
20260505194016 68 155 3.5 10.4 0.00 0.00 0.00 42 1012.8
20260505193515 68 140 4.3 9.6 0.00 0.00 0.00 42 1012.7
20260505193015 68 211 5.2 12.2 0.00 0.00 0.00 42 1012.6
20260505192517 67 186 4.3 18.2 0.00 0.00 0.00 42 1012.6
20260505192014 67 115 7.8 18.2 0.00 0.00 0.00 42 1012.8
20260505191514 67 144 6.1 16.5 0.00 0.00 0.00 42 1012.9
20260505191012 67 160 7.0 13.9 0.00 0.00 0.00 42 1012.9
20260505190515 68 161 8.7 13.9 0.00 0.00 0.00 41 1012.8
20260505190014 68 156 4.3 12.2 0.00 0.00 0.00 42 1013.0
20260505185515 68 146 7.0 13.0 0.00 0.00 0.00 40 1013.0
20260505185011 68 124 5.2 17.4 0.00 0.00 0.00 42 1013.1
20260505184514 69 171 8.7 15.6 0.00 0.00 0.00 40 1013.4
20260505184011 69 188 5.2 10.4 0.00 0.00 0.00 39 1013.2
20260505183510 69 188 3.5 10.4 0.00 0.00 0.00 39 1013.2
20260505183009 69 148 3.5 16.5 0.00 0.00 0.00 40 1013.1
20260505182510 69 147 8.7 16.5 0.00 0.00 0.00 37 1013.3
20260505182009 69 223 5.2 16.5 0.00 0.00 0.00 37 1013.5
20260505181509 69 158 4.3 15.6 0.00 0.00 0.00 39 1013.5
20260505181008 69 122 2.6 12.2 0.00 0.00 0.00 39 1013.7
20260505180510 68 145 3.5 12.2 0.00 0.00 0.00 40 1013.5
20260505180008 68 148 6.1 13.0 0.00 0.00 0.00 39 1013.7
20260505175507 68 135 6.1 13.0 0.00 0.00 0.00 39 1013.8
20260505175007 68 143 7.0 14.8 0.00 0.00 0.00 39 1013.7
20260505174511 67 132 5.2 15.6 0.00 0.00 0.00 41 1013.9
20260505174007 67 130 7.0 15.6 0.00 0.00 0.00 41 1013.8
20260505173509 66 125 4.3 13.0 0.00 0.00 0.00 43 1013.7
20260505173018 67 139 4.3 13.0 0.00 0.00 0.00 42 1013.8
20260505172507 67 110 3.5 11.3 0.00 0.00 0.00 44 1013.7
20260505172006 67 222 3.5 10.4 0.00 0.00 0.00 45 1013.7
20260505171506 66 123 5.2 12.2 0.00 0.00 0.00 45 1013.6
20260505171010 66 134 6.1 12.2 0.00 0.00 0.00 46 1013.7
20260505170504 66 160 5.2 13.0 0.00 0.00 0.00 46 1013.8
20260505170006 66 135 7.0 12.2 0.00 0.00 0.00 47 1013.9
20260505165505 66 156 6.1 13.0 0.00 0.00 0.00 47 1013.7
20260505165005 66 94 7.0 13.0 0.00 0.00 0.00 45 1014.0
20260505164510 66 123 5.2 10.4 0.00 0.00 0.00 48 1014.0
20260505164005 65 157 4.3 8.7 0.00 0.00 0.00 48 1014.1
20260505163504 65 152 3.5 8.7 0.00 0.00 0.00 48 1014.2
20260505163011 66 161 3.5 8.7 0.00 0.00 0.00 50 1014.4
20260505162504 65 136 3.5 11.3 0.00 0.00 0.00 50 1014.5
20260505162003 65 131 6.1 11.3 0.00 0.00 0.00 50 1014.7
20260505161505 65 243 3.5 7.8 0.00 0.00 0.00 50 1014.6
20260505161002 65 152 5.2 8.7 0.00 0.00 0.00 49 1014.6
20260505160503 65 172 5.2 8.7 0.00 0.00 0.00 50 1014.7
20260505153117 68 108 1.7 7.0 0.00 0.00 0.00 45 1014.7
20260505152601 67 177 3.5 7.0 0.00 0.00 0.00 44 1014.7
20260505152101 68 143 1.7 5.2 0.00 0.00 0.00 44 1014.7
20260505151605 68 137 2.6 5.2 0.00 0.00 0.00 43 1014.8
20260505151059 68 147 3.5 7.0 0.00 0.00 0.00 43 1014.8
20260505150600 70 139 2.6 5.2 0.00 0.00 0.00 37 1014.7
20260505140551 65 198 1.7 6.1 0.00 0.00 0.00 44 1014.7
20260505125040 60 107 0.0 0.9 0.00 0.00 0.00 61 1014.7
20260505124538 58 107 0.0 0.9 0.00 0.00 0.00 64 1014.7
20260505124034 57 107 0.0 0.9 0.00 0.00 0.00 65 1014.7
20260505123535 56 107 0.0 0.9 0.00 0.00 0.00 64 1014.7
20260505123034 55 107 0.0 0.9 0.00 0.00 0.00 66 1014.8
20260505122537 55 107 0.0 0.0 0.00 0.00 0.00 65 1014.9
20260505122037 55 107 0.0 0.0 0.00 0.00 0.00 68 1014.9
20260505121537 53 107 0.0 0.0 0.00 0.00 0.00 70 1014.8
20260505121033 52 107 0.0 0.0 0.00 0.00 0.00 73 1014.9
20260505120531 51 107 0.0 0.0 0.00 0.00 0.00 75 1014.8
20260505120032 49 107 0.0 0.0 0.00 0.00 0.00 79 1014.7
20260505115530 47 107 0.0 0.9 0.00 0.00 0.00 81 1014.6
20260505115033 46 107 0.0 0.9 0.00 0.00 0.00 83 1014.4
20260505114537 46 107 0.0 0.9 0.00 0.00 0.00 84 1014.5
20260505114030 45 107 0.0 0.9 0.00 0.00 0.00 86 1014.4
20260505113529 44 107 0.0 0.9 0.00 0.00 0.00 86 1014.5
20260505113028 44 107 0.0 0.9 0.00 0.00 0.00 86 1014.4
20260505112528 44 107 0.0 0.9 0.00 0.00 0.00 86 1014.4
20260505112028 44 107 0.0 0.9 0.00 0.00 0.00 87 1014.3
20260505111534 44 105 0.0 0.0 0.00 0.00 0.00 86 1014.3
20260505111027 44 105 0.0 0.0 0.00 0.00 0.00 86 1014.4
20260505110529 44 105 0.0 0.0 0.00 0.00 0.00 85 1014.3
20260505102019 45 105 0.0 0.9 0.00 0.00 0.00 81 1014.0
20260505101518 46 105 0.0 0.9 0.00 0.00 0.00 80 1014.0
20260505101015 47 105 0.0 0.9 0.00 0.00 0.00 78 1014.0
20260505100514 48 105 0.0 0.9 0.00 0.00 0.00 76 1014.0
20260505100014 48 105 0.0 1.7 0.00 0.00 0.00 75 1014.0
20260505095515 48 105 0.0 1.7 0.00 0.00 0.00 76 1014.0
20260505095012 48 131 0.9 1.7 0.00 0.00 0.00 75 1014.1
20260505094511 49 99 0.0 1.7 0.00 0.00 0.00 74 1014.0
20260505094014 49 113 0.0 1.7 0.00 0.00 0.00 74 1013.9
20260505093509 49 115 0.0 1.7 0.00 0.00 0.00 74 1013.9
20260505093008 50 122 0.0 1.7 0.00 0.00 0.00 72 1014.0
20260505092509 50 109 0.0 2.6 0.00 0.00 0.00 71 1014.0
20260505092008 50 120 0.9 2.6 0.00 0.00 0.00 72 1014.0
20260505091508 49 123 0.0 1.7 0.00 0.00 0.00 72 1013.9
20260505091006 50 146 0.0 3.5 0.00 0.00 0.00 70 1013.9
20260505090505 51 221 0.9 3.5 0.00 0.00 0.00 69 1013.9
20260505090003 52 209 0.9 4.3 0.00 0.00 0.00 66 1013.9
20260505085502 53 237 0.9 5.2 0.00 0.00 0.00 63 1013.8
20260505085105 54 271 0.9 5.2 0.00 0.00 0.00 62 1013.7
20260505084600 54 250 0.0 7.0 0.00 0.00 0.00 61 1013.6
20260505084102 55 264 2.6 7.0 0.00 0.00 0.00 60 1013.7
20260505083559 55 210 1.7 7.0 0.00 0.00 0.00 60 1013.7
20260505083100 55 254 1.7 7.8 0.00 0.00 0.00 60 1013.7
20260505082559 55 248 1.7 7.8 0.00 0.00 0.00 60 1013.7
20260505082058 55 236 1.7 7.8 0.00 0.00 0.00 59 1013.6
20260505081603 55 266 1.7 5.2 0.00 0.00 0.00 60 1013.6
20260505081058 55 235 0.9 5.2 0.00 0.00 0.00 60 1013.5